Regional Weather Roundup
Issued by NWS

Home | Current Version | Previous Version | Graphics & Text | Print | Product List | Glossary On
Versions: 1 2 3 4 5 6 7 8 9 10 11 12 13 14 15 16 17 18 19 20 21 22 23 24 25 26 27 28 29 30 31 32 33 34 35 36 37 38 39 40 41 42 43 44 45 46 47 48 49 50
000
ASUS43 KOAX 240410
RWRNE

WEATHER ROUNDUP FOR NEBRASKA
NATIONAL WEATHER SERVICE OMAHA NE
1100 PM CDT SUN JUL 23 2017

NOTES: SATELLITE DATA IS BEING USED TO AUGMENT CLOUD COVER ABOVE
       12000 FEET.
       "FAIR" INDICATES FEW OR NO CLOUDS BELOW 12,000 FEET WITH NO
       SIGNIFICANT WEATHER AND/OR OBSTRUCTIONS TO VISIBILITY.


NEZ001>004-019>022-054>056-240500-
NEBRASKA PANHANDLE

CITY           SKY/WX    TMP DP  RH WIND       PRES   REMARKS
SCOTTSBLUFF    CLEAR     74  52  46 E7        30.00R
ALLIANCE       CLEAR     71  49  45 S10       30.01R
CHADRON        CLEAR     80  53  39 SE13      29.94S
GORDON         FAIR      73  54  51 SE9       30.01S
KIMBALL        CLEAR     74  50  43 S10       30.11R
SIDNEY         PTCLDY    76  49  38 S13       30.08S
$$

NEZ057>060-069>072-079>082-240500-
SOUTHWEST NEBRASKA

CITY           SKY/WX    TMP DP  RH WIND       PRES   REMARKS
NORTH PLATTE   CLEAR     73  66  78 E10       30.02R
IMPERIAL       CLEAR     78  53  41 S8        30.04R
LEXINGTON      CLEAR     74  65  74 SE9       30.03R
MCCOOK         CLEAR     76  60  57 E6        30.03R
OGALLALA       CLEAR     77  54  45 S7        30.02R
$$

NEZ005>010-023>029-035>040-094-240500-
NORTH CENTRAL NEBRASKA

CITY           SKY/WX    TMP DP  RH WIND       PRES   REMARKS
VALENTINE      CLEAR     77  55  46 SE14      30.01R
AINSWORTH      CLEAR     69  60  73 SE6       30.02F
BROKEN BOW     CLEAR     72  61  68 SE7       30.03R
O`NEILL        CLEAR     69  61  76 SE5       30.02R
ORD            CLEAR     73  59  61 SE3       30.01R
THEDFORD       CLEAR     75  57  52 SE7       30.04R
$$

NEZ041-046>049-061>064-073>077-083>087-240500-
SOUTH CENTRAL NEBRASKA

CITY           SKY/WX    TMP DP  RH WIND       PRES   REMARKS
GRAND ISLAND   CLEAR     72  65  78 E8        30.02R
AURORA         CLEAR     69  67  94 E7        30.02R
HASTINGS       CLEAR     76  64  66 E9        30.03R
HEBRON         CLEAR     74  67  80 E3        30.00R
HOLDREGE       CLEAR     70  66  87 E8        30.04R
KEARNEY        CLEAR     71  67  87 SE7       30.04R
YORK           CLEAR     70  64  83 E6        30.02R
$$

NEZ011>018-030>034-042>045-240500-
NORTHEAST NEBRASKA

CITY           SKY/WX    TMP DP  RH WIND       PRES   REMARKS
NORFOLK        CLEAR     66  56  70 SE5       30.01R
ALBION         CLEAR     69  61  75 SE3       30.02R
BLAIR          CLEAR     72  62  70 NE5       30.00R
COLUMBUS       CLEAR     67  61  81 CALM      30.01R
FREMONT        CLEAR     72  60  66 CALM      30.00R
TEKAMAH        CLEAR     67  62  84 N7        29.99R
WAYNE          CLEAR     65  64  98 CALM      30.01R
$$

NEZ050>053-065>068-078-088>093-240500-
SOUTHEAST NEBRASKA

CITY           SKY/WX    TMP DP  RH WIND       PRES   REMARKS
LINCOLN        CLEAR     70  63  78 N6        30.00R
OMAHA EPPLEY   CLEAR     72  62  71 N5        29.99R
BEATRICE       CLEAR     72  64  78 NE5       30.00R
FALLS CITY     CLEAR     73  67  81 N3        29.97R
NEBRASKA CITY  CLEAR     72  66  82 NE3       29.99R
PLATTSMOUTH    CLEAR     72  62  71 CALM      30.00R
$$

NEZ044-045-051>053-067-240500-
OMAHA AREA

CITY           SKY/WX    TMP DP  RH WIND       PRES   REMARKS
OMAHA EPPLEY   CLEAR     72  62  71 N5        29.99R
BLAIR          CLEAR     72  62  70 NE5       30.00R
FREMONT        CLEAR     72  60  66 CALM      30.00R
MILLARD        CLEAR     78  64  61 CALM      29.99R
OFFUTT AFB     CLEAR     71  63  75 NE5       29.98R
PLATTSMOUTH    CLEAR     72  62  71 CALM      30.00R
WAHOO          FAIR      71  61  70 CALM      30.00R
$$




USA.gov is the U.S. government's official web portal to all federal, state and local government web resources and services.